Time,TemperatureF,DewpointF,PressureIn,WindDirection,WindDirectionDegrees,WindSpeedMPH,WindSpeedGustMPH,Humidity,HourlyPrecipIn,Conditions,Clouds,dailyrainin,SoftwareType,DateUTC
2013-09-17 00:00:00,73.7,69.9,29.97,North,32767,0.0,0.0,88,0.00,,,0.00,Wunderground v.1.13,2013-09-17 04:00:00,
2013-09-17 00:01:00,73.7,69.9,29.97,North,32767,0.0,0.0,88,0.00,,,0.00,Wunderground v.1.13,2013-09-17 04:01:00,
2013-09-17 00:02:00,73.7,69.9,29.97,North,32767,0.0,0.0,88,0.00,,,0.00,Wunderground v.1.13,2013-09-17 04:02:00,
2013-09-17 00:03:00,73.7,69.9,29.97,North,32767,0.0,0.0,88,0.00,,,0.00,Wunderground v.1.13,2013-09-17 04:03:00,
2013-09-17 00:08:00,73.5,69.7,29.97,North,-999,0.0,0.0,88,0.00,,,-99.99,WeatherLink 6.0.2,2013-09-17 04:08:00,
2013-09-17 00:13:00,73.5,69.7,29.97,North,-999,0.0,0.0,88,0.00,,,-99.99,WeatherLink 6.0.2,2013-09-17 04:13:00,
2013-09-17 00:19:00,73.3,69.5,29.96,North,32767,0.0,0.0,88,0.00,,,0.00,Wunderground v.1.13,2013-09-17 04:19:00,
2013-09-17 00:24:00,73.2,69.4,29.96,North,32767,0.0,0.0,88,0.00,,,0.00,Wunderground v.1.13,2013-09-17 04:24:00,
2013-09-17 00:29:00,73.0,69.2,29.96,North,32767,0.0,0.0,88,0.00,,,0.00,Wunderground v.1.13,2013-09-17 04:29:00,
2013-09-17 00:34:00,72.8,69.0,29.96,North,32767,0.0,0.0,88,0.00,,,0.00,Wunderground v.1.13,2013-09-17 04:34:00,
2013-09-17 00:39:00,72.7,68.9,29.96,North,32767,0.0,0.0,88,0.00,,,0.00,Wunderground v.1.13,2013-09-17 04:39:00,
2013-09-17 00:44:00,72.5,68.7,29.96,North,32767,0.0,0.0,88,0.00,,,0.00,Wunderground v.1.13,2013-09-17 04:44:00,
2013-09-17 00:50:00,72.3,68.5,29.96,North,32767,0.0,0.0,88,0.00,,,0.00,Wunderground v.1.13,2013-09-17 04:50:00,
2013-09-17 00:55:00,72.1,68.3,29.96,North,32767,0.0,0.0,88,0.00,,,0.00,Wunderground v.1.13,2013-09-17 04:55:00,
2013-09-17 01:01:00,72.0,68.2,29.96,North,32767,0.0,0.0,88,0.00,,,0.00,Wunderground v.1.13,2013-09-17 05:01:00,
2013-09-17 01:07:00,71.8,68.1,29.96,North,32767,0.0,0.0,88,0.00,,,0.00,Wunderground v.1.13,2013-09-17 05:07:00,
2013-09-17 01:12:00,71.8,68.1,29.96,North,32767,0.0,0.0,88,0.00,,,0.00,Wunderground v.1.13,2013-09-17 05:12:00,
2013-09-17 01:18:00,71.6,67.9,29.96,North,-999,0.0,0.0,88,0.00,,,-99.99,WeatherLink 6.0.2,2013-09-17 05:18:00,
2013-09-17 01:24:00,71.5,67.8,29.96,North,32767,0.0,0.0,88,0.00,,,0.00,Wunderground v.1.13,2013-09-17 05:24:00,
2013-09-17 01:29:00,71.5,67.8,29.96,North,32767,0.0,0.0,88,0.00,,,0.00,Wunderground v.1.13,2013-09-17 05:29:00,
2013-09-17 01:34:00,71.3,67.6,29.96,North,32767,0.0,0.0,88,0.00,,,0.00,Wunderground v.1.13,2013-09-17 05:34:00,
2013-09-17 01:39:00,71.1,67.4,29.96,North,32767,0.0,0.0,88,0.00,,,0.00,Wunderground v.1.13,2013-09-17 05:39:00,
2013-09-17 01:45:00,71.1,67.4,29.96,North,32767,0.0,0.0,88,0.00,,,0.00,Wunderground v.1.13,2013-09-17 05:45:00,
2013-09-17 01:50:00,71.1,67.4,29.96,North,32767,0.0,0.0,88,0.00,,,0.00,Wunderground v.1.13,2013-09-17 05:50:00,
2013-09-17 01:56:00,70.9,67.2,29.96,North,32767,0.0,0.0,88,0.00,,,0.00,Wunderground v.1.13,2013-09-17 05:56:00,
2013-09-17 02:01:00,70.9,67.2,29.95,North,32767,0.0,0.0,88,0.00,,,0.00,Wunderground v.1.13,2013-09-17 06:01:00,
2013-09-17 02:07:00,70.9,67.2,29.95,North,32767,0.0,0.0,88,0.00,,,0.00,Wunderground v.1.13,2013-09-17 06:07:00,
2013-09-17 02:12:00,70.9,67.5,29.95,North,32767,0.0,0.0,89,0.00,,,0.00,Wunderground v.1.13,2013-09-17 06:12:00,
2013-09-17 02:17:00,70.9,67.2,29.95,North,32767,0.0,0.0,88,0.00,,,0.00,Wunderground v.1.13,2013-09-17 06:17:00,
2013-09-17 02:22:00,70.8,67.4,29.95,North,32767,0.0,0.0,89,0.00,,,0.00,Wunderground v.1.13,2013-09-17 06:22:00,
2013-09-17 02:27:00,70.8,67.4,29.95,North,32767,0.0,0.0,89,0.00,,,0.00,Wunderground v.1.13,2013-09-17 06:27:00,
2013-09-17 02:32:00,70.8,67.4,29.95,North,32767,0.0,0.0,89,0.00,,,0.00,Wunderground v.1.13,2013-09-17 06:32:00,
2013-09-17 02:37:00,70.8,67.4,29.95,North,32767,0.0,0.0,89,0.00,,,0.00,Wunderground v.1.13,2013-09-17 06:37:00,
2013-09-17 02:42:00,70.8,67.4,29.95,North,32767,0.0,0.0,89,0.00,,,0.00,Wunderground v.1.13,2013-09-17 06:42:00,
2013-09-17 02:47:00,70.8,67.4,29.94,North,32767,0.0,0.0,89,0.00,,,0.00,Wunderground v.1.13,2013-09-17 06:47:00,
2013-09-17 02:52:00,70.9,67.5,29.94,North,32767,0.0,0.0,89,0.00,,,0.00,Wunderground v.1.13,2013-09-17 06:52:00,
2013-09-17 02:57:00,70.9,67.5,29.94,North,32767,0.0,0.0,89,0.00,,,0.00,Wunderground v.1.13,2013-09-17 06:57:00,
2013-09-17 03:02:00,70.9,67.5,29.94,North,32767,0.0,0.0,89,0.00,,,0.00,Wunderground v.1.13,2013-09-17 07:02:00,
2013-09-17 03:07:00,70.9,67.5,29.94,North,32767,0.0,0.0,89,0.00,,,0.00,Wunderground v.1.13,2013-09-17 07:07:00,
2013-09-17 03:12:00,70.8,67.4,29.94,North,32767,0.0,0.0,89,0.00,,,0.00,Wunderground v.1.13,2013-09-17 07:12:00,
2013-09-17 03:17:00,70.8,67.4,29.94,North,32767,0.0,0.0,89,0.00,,,0.00,Wunderground v.1.13,2013-09-17 07:17:00,
2013-09-17 03:22:00,70.8,67.4,29.94,North,32767,0.0,0.0,89,0.00,,,0.00,Wunderground v.1.13,2013-09-17 07:22:00,
2013-09-17 03:27:00,70.8,67.4,29.94,North,32767,0.0,0.0,89,0.00,,,0.00,Wunderground v.1.13,2013-09-17 07:27:00,
2013-09-17 03:32:00,70.6,67.2,29.94,North,32767,0.0,0.0,89,0.00,,,0.00,Wunderground v.1.13,2013-09-17 07:32:00,
2013-09-17 03:37:00,70.6,67.2,29.94,North,32767,0.0,0.0,89,0.00,,,0.00,Wunderground v.1.13,2013-09-17 07:37:00,
2013-09-17 03:42:00,70.6,67.2,29.94,North,32767,0.0,0.0,89,0.00,,,0.00,Wunderground v.1.13,2013-09-17 07:42:00,
2013-09-17 03:47:00,70.6,67.2,29.94,North,32767,0.0,0.0,89,0.00,,,0.00,Wunderground v.1.13,2013-09-17 07:47:00,
2013-09-17 03:52:00,70.6,67.2,29.94,North,32767,0.0,0.0,89,0.00,,,0.00,Wunderground v.1.13,2013-09-17 07:52:00,
2013-09-17 03:57:00,70.4,67.0,29.94,North,32767,0.0,0.0,89,0.00,,,0.00,Wunderground v.1.13,2013-09-17 07:57:00,
2013-09-17 04:02:00,70.4,67.3,29.94,North,32767,0.0,0.0,90,0.00,,,0.00,Wunderground v.1.13,2013-09-17 08:02:00,
2013-09-17 04:07:00,70.4,67.3,29.94,North,32767,0.0,0.0,90,0.00,,,0.00,Wunderground v.1.13,2013-09-17 08:07:00,
2013-09-17 04:12:00,70.4,67.3,29.94,North,32767,0.0,0.0,90,0.00,,,0.00,Wunderground v.1.13,2013-09-17 08:12:00,
2013-09-17 04:17:00,70.4,67.3,29.94,North,32767,0.0,0.0,90,0.00,,,0.00,Wunderground v.1.13,2013-09-17 08:17:00,
2013-09-17 04:22:00,70.4,67.3,29.94,North,32767,0.0,0.0,90,0.00,,,0.00,Wunderground v.1.13,2013-09-17 08:22:00,
2013-09-17 04:27:00,70.3,67.2,29.94,North,32767,0.0,0.0,90,0.00,,,0.00,Wunderground v.1.13,2013-09-17 08:27:00,
2013-09-17 04:32:00,70.4,67.3,29.94,North,32767,0.0,0.0,90,0.00,,,0.00,Wunderground v.1.13,2013-09-17 08:32:00,
2013-09-17 04:37:00,70.4,67.3,29.94,North,32767,0.0,0.0,90,0.00,,,0.00,Wunderground v.1.13,2013-09-17 08:37:00,
2013-09-17 04:42:00,70.4,67.3,29.94,North,32767,0.0,0.0,90,0.00,,,0.00,Wunderground v.1.13,2013-09-17 08:42:00,
2013-09-17 04:47:00,70.4,67.3,29.94,North,32767,0.0,0.0,90,0.00,,,0.00,Wunderground v.1.13,2013-09-17 08:47:00,
2013-09-17 04:50:00,70.3,67.2,29.94,North,-999,0.0,0.0,90,0.00,,,-99.99,WeatherLink 6.0.2,2013-09-17 08:50:00,
2013-09-17 04:52:00,70.3,67.2,29.94,North,32767,0.0,0.0,90,0.00,,,0.00,Wunderground v.1.13,2013-09-17 08:52:00,
2013-09-17 04:55:00,70.3,67.2,29.94,North,-999,0.0,0.0,90,0.00,,,-99.99,WeatherLink 6.0.2,2013-09-17 08:55:00,
2013-09-17 04:58:00,70.3,67.2,29.94,North,32767,0.0,0.0,90,0.00,,,0.00,Wunderground v.1.13,2013-09-17 08:58:00,
2013-09-17 05:00:00,70.1,67.0,29.94,North,-999,0.0,0.0,90,0.00,,,-99.99,WeatherLink 6.0.2,2013-09-17 09:00:00,
2013-09-17 05:03:00,70.1,67.0,29.94,North,32767,0.0,0.0,90,0.00,,,0.00,Wunderground v.1.13,2013-09-17 09:03:00,
2013-09-17 05:05:00,70.1,67.0,29.94,North,-999,0.0,0.0,90,0.00,,,-99.99,WeatherLink 6.0.2,2013-09-17 09:05:00,
2013-09-17 05:08:00,70.1,67.0,29.94,North,32767,0.0,0.0,90,0.00,,,0.00,Wunderground v.1.13,2013-09-17 09:08:00,
2013-09-17 05:13:00,70.1,67.0,29.94,North,32767,0.0,0.0,90,0.00,,,0.00,Wunderground v.1.13,2013-09-17 09:13:00,
2013-09-17 05:18:00,70.1,67.0,29.94,North,-999,0.0,0.0,90,0.00,,,-99.99,WeatherLink 6.0.2,2013-09-17 09:18:00,
2013-09-17 05:23:00,69.9,66.8,29.94,North,-999,0.0,0.0,90,0.00,,,-99.99,WeatherLink 6.0.2,2013-09-17 09:23:00,
2013-09-17 05:25:00,69.9,66.8,29.94,North,-999,0.0,0.0,90,0.00,,,-99.99,WeatherLink 6.0.2,2013-09-17 09:25:00,
2013-09-17 05:28:00,69.9,66.8,29.94,North,32767,0.0,0.0,90,0.00,,,0.00,Wunderground v.1.13,2013-09-17 09:28:00,
2013-09-17 05:30:00,69.9,66.8,29.94,North,-999,0.0,0.0,90,0.00,,,-99.99,WeatherLink 6.0.2,2013-09-17 09:30:00,
2013-09-17 05:33:00,70.1,67.0,29.94,North,32767,0.0,0.0,90,0.00,,,0.00,Wunderground v.1.13,2013-09-17 09:33:00,
2013-09-17 05:35:00,70.1,67.0,29.94,North,-999,0.0,0.0,90,0.00,,,-99.99,WeatherLink 6.0.2,2013-09-17 09:35:00,
2013-09-17 05:38:00,70.1,67.3,29.94,North,32767,0.0,0.0,91,0.00,,,0.00,Wunderground v.1.13,2013-09-17 09:38:00,
2013-09-17 05:40:00,70.1,67.0,29.94,North,-999,0.0,0.0,90,0.00,,,-99.99,WeatherLink 6.0.2,2013-09-17 09:40:00,
2013-09-17 05:43:00,70.1,67.3,29.94,North,32767,0.0,0.0,91,0.00,,,0.00,Wunderground v.1.13,2013-09-17 09:43:00,
2013-09-17 05:45:00,70.1,67.3,29.95,North,-999,0.0,0.0,91,0.00,,,-99.99,WeatherLink 6.0.2,2013-09-17 09:45:00,
2013-09-17 05:48:00,70.1,67.3,29.95,North,32767,0.0,0.0,91,0.00,,,0.00,Wunderground v.1.13,2013-09-17 09:48:00,
2013-09-17 05:50:00,69.9,67.2,29.95,North,-999,0.0,0.0,91,0.00,,,-99.99,WeatherLink 6.0.2,2013-09-17 09:50:00,
2013-09-17 05:53:00,69.9,67.2,29.95,North,32767,0.0,0.0,91,0.00,,,0.00,Wunderground v.1.13,2013-09-17 09:53:00,
2013-09-17 05:55:00,69.9,67.2,29.95,North,-999,0.0,0.0,91,0.00,,,-99.99,WeatherLink 6.0.2,2013-09-17 09:55:00,
2013-09-17 05:58:00,69.9,67.2,29.95,North,32767,0.0,0.0,91,0.00,,,0.00,Wunderground v.1.13,2013-09-17 09:58:00,
2013-09-17 06:00:00,69.9,67.2,29.94,North,-999,0.0,0.0,91,0.00,,,-99.99,WeatherLink 6.0.2,2013-09-17 10:00:00,
2013-09-17 06:03:00,69.9,67.2,29.94,North,32767,0.0,0.0,91,0.00,,,0.00,Wunderground v.1.13,2013-09-17 10:03:00,
2013-09-17 06:05:00,69.9,67.2,29.94,North,-999,0.0,0.0,91,0.00,,,-99.99,WeatherLink 6.0.2,2013-09-17 10:05:00,
2013-09-17 06:08:00,69.9,67.2,29.94,North,32767,0.0,0.0,91,0.00,,,0.00,Wunderground v.1.13,2013-09-17 10:08:00,
2013-09-17 06:10:00,69.9,67.2,29.94,North,-999,0.0,0.0,91,0.00,,,-99.99,WeatherLink 6.0.2,2013-09-17 10:10:00,
2013-09-17 06:13:00,69.9,67.2,29.94,North,32767,0.0,0.0,91,0.00,,,0.00,Wunderground v.1.13,2013-09-17 10:13:00,
2013-09-17 06:15:00,69.9,67.2,29.95,North,-999,0.0,0.0,91,0.00,,,-99.99,WeatherLink 6.0.2,2013-09-17 10:15:00,
2013-09-17 06:18:00,70.1,67.3,29.95,North,32767,0.0,0.0,91,0.00,,,0.00,Wunderground v.1.13,2013-09-17 10:18:00,
2013-09-17 06:20:00,70.1,67.3,29.95,North,-999,0.0,0.0,91,0.00,,,-99.99,WeatherLink 6.0.2,2013-09-17 10:20:00,
2013-09-17 06:23:00,70.1,67.3,29.95,North,32767,0.0,0.0,91,0.00,,,0.00,Wunderground v.1.13,2013-09-17 10:23:00,
2013-09-17 06:25:00,70.1,67.3,29.95,North,-999,0.0,0.0,91,0.00,,,-99.99,WeatherLink 6.0.2,2013-09-17 10:25:00,
2013-09-17 06:28:00,70.1,67.3,29.95,North,32767,0.0,0.0,91,0.00,,,0.00,Wunderground v.1.13,2013-09-17 10:28:00,
2013-09-17 06:30:00,70.3,67.5,29.96,North,-999,0.0,0.0,91,0.00,,,-99.99,WeatherLink 6.0.2,2013-09-17 10:30:00,
2013-09-17 06:33:00,70.3,67.5,29.96,North,32767,0.0,0.0,91,0.00,,,0.00,Wunderground v.1.13,2013-09-17 10:33:00,
2013-09-17 06:35:00,70.3,67.5,29.96,North,-999,0.0,0.0,91,0.00,,,-99.99,WeatherLink 6.0.2,2013-09-17 10:35:00,
2013-09-17 06:38:00,70.3,67.5,29.96,North,32767,0.0,0.0,91,0.00,,,0.00,Wunderground v.1.13,2013-09-17 10:38:00,
2013-09-17 06:40:00,70.4,67.6,29.96,North,-999,0.0,0.0,91,0.00,,,-99.99,WeatherLink 6.0.2,2013-09-17 10:40:00,
2013-09-17 06:43:00,70.4,67.6,29.96,North,32767,0.0,0.0,91,0.00,,,0.00,Wunderground v.1.13,2013-09-17 10:43:00,
2013-09-17 06:45:00,70.4,67.6,29.96,North,-999,0.0,0.0,91,0.00,,,-99.99,WeatherLink 6.0.2,2013-09-17 10:45:00,
2013-09-17 06:48:00,70.6,67.8,29.96,North,32767,0.0,0.0,91,0.00,,,0.00,Wunderground v.1.13,2013-09-17 10:48:00,
2013-09-17 06:50:00,70.6,67.8,29.96,North,-999,0.0,0.0,91,0.00,,,-99.99,WeatherLink 6.0.2,2013-09-17 10:50:00,
2013-09-17 06:53:00,70.8,68.0,29.96,North,32767,0.0,0.0,91,0.00,,,0.00,Wunderground v.1.13,2013-09-17 10:53:00,
2013-09-17 06:58:00,70.9,68.5,29.96,North,32767,0.0,0.0,92,0.00,,,0.00,Wunderground v.1.13,2013-09-17 10:58:00,
2013-09-17 07:04:00,70.8,68.0,29.96,North,-999,0.0,0.0,91,0.00,,,-99.99,WeatherLink 6.0.2,2013-09-17 11:04:00,
2013-09-17 07:09:00,71.1,68.7,29.96,North,32767,0.0,0.0,92,0.00,,,0.00,Wunderground v.1.13,2013-09-17 11:09:00,
2013-09-17 07:10:00,71.1,68.7,29.96,North,-999,0.0,0.0,92,0.00,,,-99.99,WeatherLink 6.0.2,2013-09-17 11:10:00,
2013-09-17 07:14:00,71.3,68.9,29.96,North,32767,0.0,0.0,92,0.00,,,0.00,Wunderground v.1.13,2013-09-17 11:14:00,
2013-09-17 07:15:00,71.3,68.9,29.96,North,-999,0.0,0.0,92,0.00,,,-99.99,WeatherLink 6.0.2,2013-09-17 11:15:00,
2013-09-17 07:19:00,71.3,68.9,29.96,North,32767,0.0,0.0,92,0.00,,,0.00,Wunderground v.1.13,2013-09-17 11:19:00,
2013-09-17 07:20:00,71.3,68.9,29.96,North,-999,0.0,0.0,92,0.00,,,-99.99,WeatherLink 6.0.2,2013-09-17 11:20:00,
2013-09-17 07:24:00,71.3,68.9,29.96,North,32767,0.0,0.0,92,0.00,,,0.00,Wunderground v.1.13,2013-09-17 11:24:00,
2013-09-17 07:25:00,71.3,68.9,29.96,North,-999,0.0,0.0,92,0.00,,,-99.99,WeatherLink 6.0.2,2013-09-17 11:25:00,
2013-09-17 07:29:00,71.3,68.9,29.96,North,32767,0.0,0.0,92,0.00,,,0.01,Wunderground v.1.13,2013-09-17 11:29:00,
2013-09-17 07:30:00,71.3,68.9,29.96,North,-999,0.0,0.0,92,0.01,,,-99.99,WeatherLink 6.0.2,2013-09-17 11:30:00,
2013-09-17 07:34:00,71.1,68.7,29.96,North,32767,0.0,0.0,92,0.00,,,0.01,Wunderground v.1.13,2013-09-17 11:34:00,
2013-09-17 07:35:00,71.1,68.7,29.96,North,-999,0.0,0.0,92,0.01,,,-99.99,WeatherLink 6.0.2,2013-09-17 11:35:00,
2013-09-17 07:40:00,71.1,68.7,29.96,North,32767,0.0,0.0,92,0.00,,,0.01,Wunderground v.1.13,2013-09-17 11:40:00,
2013-09-17 07:45:00,71.1,68.7,29.96,North,32767,0.0,0.0,92,0.00,,,0.01,Wunderground v.1.13,2013-09-17 11:45:00,
2013-09-17 07:50:00,71.1,68.7,29.97,North,32767,0.0,0.0,92,0.00,,,0.01,Wunderground v.1.13,2013-09-17 11:50:00,
2013-09-17 07:55:00,71.3,68.9,29.97,North,32767,0.0,0.0,92,0.00,,,0.01,Wunderground v.1.13,2013-09-17 11:55:00,
2013-09-17 08:00:00,71.5,69.1,29.97,North,32767,0.0,0.0,92,0.00,,,0.01,Wunderground v.1.13,2013-09-17 12:00:00,
2013-09-17 08:05:00,71.8,69.3,29.97,North,32767,0.0,0.0,92,0.00,,,0.01,Wunderground v.1.13,2013-09-17 12:05:00,
2013-09-17 08:10:00,72.3,69.8,29.97,North,32767,0.0,0.0,92,0.00,,,0.01,Wunderground v.1.13,2013-09-17 12:10:00,
2013-09-17 08:15:00,73.0,70.5,29.97,North,32767,0.0,0.0,92,0.00,,,0.01,Wunderground v.1.13,2013-09-17 12:15:00,
2013-09-17 08:20:00,73.7,71.2,29.97,North,32767,0.0,0.0,92,0.00,,,0.01,Wunderground v.1.13,2013-09-17 12:20:00,
2013-09-17 08:25:00,74.4,71.9,29.97,North,32767,0.0,0.0,92,0.00,,,0.01,Wunderground v.1.13,2013-09-17 12:25:00,
2013-09-17 08:30:00,75.3,72.8,29.98,North,32767,0.0,0.0,92,0.00,,,0.01,Wunderground v.1.13,2013-09-17 12:30:00,
2013-09-17 08:36:00,75.8,73.3,29.98,North,32767,0.0,0.0,92,0.00,,,0.01,Wunderground v.1.13,2013-09-17 12:36:00,
2013-09-17 08:41:00,76.0,73.2,29.98,North,32767,0.0,0.0,91,0.00,,,0.01,Wunderground v.1.13,2013-09-17 12:41:00,
2013-09-17 08:46:00,76.5,73.7,29.98,North,32767,0.0,0.0,91,0.00,,,0.01,Wunderground v.1.13,2013-09-17 12:46:00,
2013-09-17 08:51:00,76.5,73.3,29.98,North,32767,0.0,0.0,90,0.00,,,0.01,Wunderground v.1.13,2013-09-17 12:51:00,
2013-09-17 08:56:00,77.0,73.8,29.98,North,32767,0.0,0.0,90,0.00,,,0.01,Wunderground v.1.13,2013-09-17 12:56:00,
2013-09-17 09:01:00,77.4,73.9,29.99,North,32767,0.0,0.0,89,0.00,,,0.01,Wunderground v.1.13,2013-09-17 13:01:00,
2013-09-17 09:06:00,77.7,73.9,29.99,North,32767,0.0,0.0,88,0.00,,,0.01,Wunderground v.1.13,2013-09-17 13:06:00,
2013-09-17 09:11:00,78.1,74.3,29.99,North,32767,0.0,0.0,88,0.00,,,0.01,Wunderground v.1.13,2013-09-17 13:11:00,
2013-09-17 09:16:00,78.6,74.4,29.99,North,32767,0.0,0.0,87,0.00,,,0.01,Wunderground v.1.13,2013-09-17 13:16:00,
2013-09-17 09:21:00,79.2,74.3,29.99,North,32767,0.0,0.0,85,0.00,,,0.01,Wunderground v.1.13,2013-09-17 13:21:00,
2013-09-17 09:26:00,79.4,74.1,29.99,North,32767,0.0,0.0,84,0.00,,,0.01,Wunderground v.1.13,2013-09-17 13:26:00,
2013-09-17 09:31:00,79.6,74.0,29.99,North,32767,0.0,0.0,83,0.00,,,0.01,Wunderground v.1.13,2013-09-17 13:31:00,
2013-09-17 09:35:00,80.1,74.1,29.99,North,-999,0.0,0.0,82,0.00,,,-99.99,WeatherLink 6.0.2,2013-09-17 13:35:00,
2013-09-17 09:36:00,80.1,74.1,29.99,North,32767,0.0,0.0,82,0.00,,,0.01,Wunderground v.1.13,2013-09-17 13:36:00,
2013-09-17 09:40:00,80.1,73.7,29.99,North,-999,0.0,0.0,81,0.00,,,-99.99,WeatherLink 6.0.2,2013-09-17 13:40:00,
2013-09-17 09:41:00,80.3,73.9,29.99,North,32767,0.0,0.0,81,0.00,,,0.01,Wunderground v.1.13,2013-09-17 13:41:00,
2013-09-17 09:45:00,80.5,73.4,29.99,North,-999,0.0,0.0,79,0.00,,,-99.99,WeatherLink 6.0.2,2013-09-17 13:45:00,
2013-09-17 09:46:00,80.7,73.6,29.99,North,32767,0.0,0.0,79,0.00,,,0.01,Wunderground v.1.13,2013-09-17 13:46:00,
2013-09-17 09:50:00,80.9,73.4,29.99,North,-999,0.0,0.0,78,0.00,,,-99.99,WeatherLink 6.0.2,2013-09-17 13:50:00,
2013-09-17 09:51:00,80.9,73.4,29.99,North,32767,0.0,0.0,78,0.00,,,0.01,Wunderground v.1.13,2013-09-17 13:51:00,
2013-09-17 09:55:00,81.4,73.9,29.99,North,-999,0.0,0.0,78,0.00,,,-99.99,WeatherLink 6.0.2,2013-09-17 13:55:00,
2013-09-17 09:56:00,81.4,73.5,29.99,North,32767,0.0,0.0,77,0.00,,,0.01,Wunderground v.1.13,2013-09-17 13:56:00,
2013-09-17 10:00:00,81.6,73.7,29.99,North,-999,0.0,0.0,77,0.00,,,-99.99,WeatherLink 6.0.2,2013-09-17 14:00:00,
2013-09-17 10:01:00,81.6,72.9,29.99,North,32767,0.0,0.0,75,0.00,,,0.01,Wunderground v.1.13,2013-09-17 14:01:00,
2013-09-17 10:05:00,82.2,73.1,29.99,North,-999,0.0,0.0,74,0.00,,,-99.99,WeatherLink 6.0.2,2013-09-17 14:05:00,
2013-09-17 10:06:00,82.4,73.7,29.99,North,32767,0.0,0.0,75,0.00,,,0.01,Wunderground v.1.13,2013-09-17 14:06:00,
2013-09-17 10:10:00,82.8,73.7,29.99,North,-999,0.0,0.0,74,0.00,,,-99.99,WeatherLink 6.0.2,2013-09-17 14:10:00,
2013-09-17 10:11:00,83.0,73.9,29.99,North,32767,0.0,0.0,74,0.00,,,0.01,Wunderground v.1.13,2013-09-17 14:11:00,
2013-09-17 10:15:00,82.8,72.8,29.99,North,-999,0.0,0.0,72,0.00,,,-99.99,WeatherLink 6.0.2,2013-09-17 14:15:00,
2013-09-17 10:16:00,82.8,72.8,29.99,North,32767,0.0,0.0,72,0.00,,,0.01,Wunderground v.1.13,2013-09-17 14:16:00,
2013-09-17 10:21:00,83.0,72.6,29.99,North,32767,0.0,0.0,71,0.00,,,0.01,Wunderground v.1.13,2013-09-17 14:21:00,
2013-09-17 10:27:00,83.8,72.5,29.99,North,32767,0.0,0.0,69,0.00,,,0.01,Wunderground v.1.13,2013-09-17 14:27:00,
2013-09-17 10:32:00,84.0,72.3,30.00,North,32767,0.0,0.0,68,0.00,,,0.01,Wunderground v.1.13,2013-09-17 14:32:00,
2013-09-17 10:37:00,84.1,72.0,30.00,North,32767,0.0,0.0,67,0.00,,,0.01,Wunderground v.1.13,2013-09-17 14:37:00,
2013-09-17 10:42:00,84.1,72.4,30.00,North,32767,0.0,0.0,68,0.00,,,0.01,Wunderground v.1.13,2013-09-17 14:42:00,
2013-09-17 10:47:00,84.7,73.0,29.99,North,32767,0.0,0.0,68,0.00,,,0.01,Wunderground v.1.13,2013-09-17 14:47:00,
2013-09-17 10:50:00,84.5,72.3,29.99,North,-999,0.0,0.0,67,0.00,,,-99.99,WeatherLink 6.0.2,2013-09-17 14:50:00,
2013-09-17 10:52:00,84.3,71.7,29.99,North,32767,0.0,0.0,66,0.00,,,0.01,Wunderground v.1.13,2013-09-17 14:52:00,
2013-09-17 10:55:00,84.5,72.3,29.99,North,-999,0.0,0.0,67,0.00,,,-99.99,WeatherLink 6.0.2,2013-09-17 14:55:00,
2013-09-17 10:57:00,84.5,72.3,29.99,North,32767,0.0,0.0,67,0.00,,,0.01,Wunderground v.1.13,2013-09-17 14:57:00,
2013-09-17 11:00:00,84.7,72.5,30.00,North,-999,0.0,0.0,67,0.00,,,-99.99,WeatherLink 6.0.2,2013-09-17 15:00:00,
2013-09-17 11:02:00,84.7,72.5,30.00,North,32767,0.0,0.0,67,0.00,,,0.01,Wunderground v.1.13,2013-09-17 15:02:00,
2013-09-17 11:07:00,85.1,72.9,30.00,North,32767,0.0,0.0,67,0.00,,,0.01,Wunderground v.1.13,2013-09-17 15:07:00,
2013-09-17 11:12:00,84.7,73.0,30.00,North,32767,0.0,0.0,68,0.00,,,0.01,Wunderground v.1.13,2013-09-17 15:12:00,
2013-09-17 11:17:00,83.8,72.5,30.00,North,32767,0.0,0.0,69,0.00,,,0.01,Wunderground v.1.13,2013-09-17 15:17:00,
2013-09-17 11:22:00,84.7,73.4,30.00,North,32767,0.0,0.0,69,0.00,,,0.01,Wunderground v.1.13,2013-09-17 15:22:00,
2013-09-17 11:27:00,85.3,72.6,30.00,North,32767,0.0,0.0,66,0.00,,,0.01,Wunderground v.1.13,2013-09-17 15:27:00,
2013-09-17 11:32:00,84.7,72.1,30.00,North,32767,0.0,0.0,66,0.00,,,0.01,Wunderground v.1.13,2013-09-17 15:32:00,
2013-09-17 11:37:00,84.9,72.3,30.00,North,32767,0.0,0.0,66,0.00,,,0.01,Wunderground v.1.13,2013-09-17 15:37:00,
2013-09-17 11:42:00,86.5,73.3,30.00,North,32767,0.0,0.0,65,0.00,,,0.01,Wunderground v.1.13,2013-09-17 15:42:00,
2013-09-17 11:47:00,85.9,72.3,29.99,North,32767,0.0,0.0,64,0.00,,,0.01,Wunderground v.1.13,2013-09-17 15:47:00,
2013-09-17 11:52:00,86.3,72.2,29.99,North,32767,0.0,0.0,63,0.00,,,0.01,Wunderground v.1.13,2013-09-17 15:52:00,
2013-09-17 11:57:00,86.5,71.5,29.99,North,32767,0.0,0.0,61,0.00,,,0.01,Wunderground v.1.13,2013-09-17 15:57:00,
2013-09-17 12:02:00,87.2,71.6,29.99,North,32767,0.0,0.0,60,0.00,,,0.01,Wunderground v.1.13,2013-09-17 16:02:00,
2013-09-17 12:07:00,87.2,72.1,29.99,North,32767,0.0,0.0,61,0.00,,,0.01,Wunderground v.1.13,2013-09-17 16:07:00,
2013-09-17 12:12:00,87.0,71.9,29.99,North,32767,0.0,0.0,61,0.00,,,0.01,Wunderground v.1.13,2013-09-17 16:12:00,
2013-09-17 12:17:00,87.0,71.9,29.99,North,32767,0.0,0.0,61,0.00,,,0.01,Wunderground v.1.13,2013-09-17 16:17:00,
2013-09-17 12:22:00,87.4,72.3,29.99,North,32767,0.0,0.0,61,0.00,,,0.01,Wunderground v.1.13,2013-09-17 16:22:00,
2013-09-17 12:27:00,87.0,71.4,29.99,North,32767,0.0,0.0,60,0.00,,,0.01,Wunderground v.1.13,2013-09-17 16:27:00,
2013-09-17 12:32:00,88.2,73.0,29.98,North,32767,0.0,0.0,61,0.00,,,0.01,Wunderground v.1.13,2013-09-17 16:32:00,
2013-09-17 12:37:00,88.2,71.6,29.98,North,32767,0.0,0.0,58,0.00,,,0.01,Wunderground v.1.13,2013-09-17 16:37:00,
2013-09-17 12:42:00,88.0,71.4,29.98,North,32767,0.0,0.0,58,0.00,,,0.01,Wunderground v.1.13,2013-09-17 16:42:00,
2013-09-17 12:45:00,88.4,71.2,29.97,North,-999,0.0,0.0,57,0.00,,,-99.99,WeatherLink 6.0.2,2013-09-17 16:45:00,
2013-09-17 12:47:00,88.6,72.9,29.97,North,32767,0.0,0.0,60,0.00,,,0.01,Wunderground v.1.13,2013-09-17 16:47:00,
2013-09-17 12:50:00,88.2,71.6,29.97,North,-999,0.0,0.0,58,0.00,,,-99.99,WeatherLink 6.0.2,2013-09-17 16:50:00,
2013-09-17 12:52:00,87.6,71.0,29.97,North,32767,0.0,0.0,58,0.00,,,0.01,Wunderground v.1.13,2013-09-17 16:52:00,
2013-09-17 12:58:00,87.0,71.4,29.97,North,32767,0.0,0.0,60,0.00,,,0.01,Wunderground v.1.13,2013-09-17 16:58:00,
2013-09-17 13:03:00,88.2,72.6,29.96,North,32767,0.0,0.0,60,0.00,,,0.01,Wunderground v.1.13,2013-09-17 17:03:00,
2013-09-17 13:08:00,88.8,71.1,29.96,North,32767,0.0,0.0,56,0.00,,,0.01,Wunderground v.1.13,2013-09-17 17:08:00,
2013-09-17 13:13:00,89.5,72.3,29.96,North,32767,0.0,0.0,57,0.00,,,0.01,Wunderground v.1.13,2013-09-17 17:13:00,
2013-09-17 13:18:00,89.0,70.7,29.95,North,32767,0.0,0.0,55,0.00,,,0.01,Wunderground v.1.13,2013-09-17 17:18:00,
2013-09-17 13:23:00,88.0,71.4,29.95,North,32767,0.0,0.0,58,0.00,,,0.01,Wunderground v.1.13,2013-09-17 17:23:00,
2013-09-17 13:28:00,88.4,71.2,29.95,North,32767,0.0,0.0,57,0.00,,,0.01,Wunderground v.1.13,2013-09-17 17:28:00,
2013-09-17 13:33:00,89.5,71.7,29.94,North,32767,0.0,0.0,56,0.00,,,0.01,Wunderground v.1.13,2013-09-17 17:33:00,
2013-09-17 13:38:00,89.9,72.1,29.94,North,32767,0.0,0.0,56,0.00,,,0.01,Wunderground v.1.13,2013-09-17 17:38:00,
2013-09-17 13:43:00,90.3,70.3,29.94,North,32767,0.0,0.0,52,0.00,,,0.01,Wunderground v.1.13,2013-09-17 17:43:00,
2013-09-17 13:48:00,90.1,72.3,29.94,North,32767,0.0,0.0,56,0.00,,,0.01,Wunderground v.1.13,2013-09-17 17:48:00,
2013-09-17 13:53:00,88.4,70.2,29.94,North,32767,0.0,0.0,55,0.00,,,0.01,Wunderground v.1.13,2013-09-17 17:53:00,
2013-09-17 13:58:00,88.0,70.3,29.94,North,32767,0.0,0.0,56,0.00,,,0.01,Wunderground v.1.13,2013-09-17 17:58:00,
2013-09-17 14:03:00,89.0,70.7,29.93,North,32767,0.0,0.0,55,0.00,,,0.01,Wunderground v.1.13,2013-09-17 18:03:00,
2013-09-17 14:05:00,89.7,71.4,29.93,North,-999,0.0,0.0,55,0.00,,,-99.99,WeatherLink 6.0.2,2013-09-17 18:05:00,
2013-09-17 14:08:00,90.1,71.2,29.93,North,32767,0.0,0.0,54,0.00,,,0.01,Wunderground v.1.13,2013-09-17 18:08:00,
2013-09-17 14:10:00,89.9,70.5,29.93,North,-999,0.0,0.0,53,0.00,,,-99.99,WeatherLink 6.0.2,2013-09-17 18:10:00,
2013-09-17 14:13:00,89.5,70.7,29.93,North,32767,0.0,0.0,54,0.00,,,0.01,Wunderground v.1.13,2013-09-17 18:13:00,
2013-09-17 14:18:00,88.0,70.3,29.93,North,32767,0.0,0.0,56,0.00,,,0.01,Wunderground v.1.13,2013-09-17 18:18:00,
2013-09-17 14:23:00,87.0,71.4,29.93,North,32767,0.0,0.0,60,0.00,,,0.01,Wunderground v.1.13,2013-09-17 18:23:00,
2013-09-17 14:28:00,87.2,71.6,29.93,North,32767,0.0,0.0,60,0.00,,,0.01,Wunderground v.1.13,2013-09-17 18:28:00,
2013-09-17 14:33:00,87.2,71.1,29.93,North,32767,0.0,0.0,59,0.00,,,0.01,Wunderground v.1.13,2013-09-17 18:33:00,
2013-09-17 14:38:00,85.3,69.8,29.93,North,32767,0.0,0.0,60,0.00,,,0.02,Wunderground v.1.13,2013-09-17 18:38:00,
2013-09-17 14:43:00,82.2,69.7,29.93,North,32767,0.0,0.0,66,0.00,,,0.02,Wunderground v.1.13,2013-09-17 18:43:00,
2013-09-17 14:48:00,80.5,70.2,29.93,North,32767,0.0,0.0,71,0.00,,,0.02,Wunderground v.1.13,2013-09-17 18:48:00,
2013-09-17 14:53:00,80.7,70.8,29.93,North,32767,0.0,0.0,72,0.00,,,0.02,Wunderground v.1.13,2013-09-17 18:53:00,
2013-09-17 14:58:00,82.4,72.5,29.93,North,32767,0.0,0.0,72,0.00,,,0.02,Wunderground v.1.13,2013-09-17 18:58:00,
2013-09-17 15:03:00,84.0,73.6,29.91,North,32767,0.0,0.0,71,0.00,,,0.02,Wunderground v.1.13,2013-09-17 19:03:00,
2013-09-17 15:08:00,84.9,73.2,29.91,North,32767,0.0,0.0,68,0.00,,,0.02,Wunderground v.1.13,2013-09-17 19:08:00,
2013-09-17 15:13:00,85.9,72.8,29.91,North,32767,0.0,0.0,65,0.00,,,0.02,Wunderground v.1.13,2013-09-17 19:13:00,
2013-09-17 15:18:00,86.5,72.9,29.91,North,32767,0.0,0.0,64,0.00,,,0.03,Wunderground v.1.13,2013-09-17 19:18:00,
2013-09-17 15:23:00,87.4,73.7,29.91,North,32767,0.0,0.0,64,0.00,,,0.03,Wunderground v.1.13,2013-09-17 19:23:00,
2013-09-17 15:28:00,87.6,73.4,29.91,North,32767,0.0,0.0,63,0.00,,,0.03,Wunderground v.1.13,2013-09-17 19:28:00,
2013-09-17 15:33:00,87.6,73.0,29.90,North,-999,0.0,0.0,62,0.02,,,-99.99,WeatherLink 6.0.2,2013-09-17 19:33:00,
2013-09-17 15:38:00,88.0,72.9,29.90,North,32767,0.0,0.0,61,0.00,,,0.03,Wunderground v.1.13,2013-09-17 19:38:00,
2013-09-17 15:43:00,88.6,72.9,29.90,North,32767,0.0,0.0,60,0.00,,,0.03,Wunderground v.1.13,2013-09-17 19:43:00,
2013-09-17 15:48:00,88.6,71.9,29.90,North,32767,0.0,0.0,58,0.00,,,0.03,Wunderground v.1.13,2013-09-17 19:48:00,
2013-09-17 15:54:00,88.6,72.4,29.90,North,-999,0.0,0.0,59,0.01,,,-99.99,WeatherLink 6.0.2,2013-09-17 19:54:00,
2013-09-17 15:59:00,87.8,72.2,29.90,North,-999,0.0,0.0,60,0.01,,,-99.99,WeatherLink 6.0.2,2013-09-17 19:59:00,
2013-09-17 16:04:00,86.5,72.9,29.90,North,-999,0.0,0.0,64,0.01,,,-99.99,WeatherLink 6.0.2,2013-09-17 20:04:00,
2013-09-17 16:09:00,83.2,72.8,29.90,North,32767,0.0,0.0,71,0.00,,,0.04,Wunderground v.1.13,2013-09-17 20:09:00,
2013-09-17 16:14:00,81.6,72.5,29.90,North,32767,0.0,0.0,74,0.00,,,0.04,Wunderground v.1.13,2013-09-17 20:14:00,
2013-09-17 16:19:00,81.4,73.1,29.90,North,32767,0.0,0.0,76,0.00,,,0.04,Wunderground v.1.13,2013-09-17 20:19:00,
2013-09-17 16:24:00,80.9,72.6,29.90,North,32767,0.0,0.0,76,1.85,,,0.11,Wunderground v.1.13,2013-09-17 20:24:00,
2013-09-17 16:25:00,80.7,72.4,29.90,North,-999,0.0,0.0,76,0.11,,,-99.99,WeatherLink 6.0.2,2013-09-17 20:25:00,
2013-09-17 16:29:00,80.5,72.6,29.90,North,32767,0.0,0.0,77,0.27,,,0.15,Wunderground v.1.13,2013-09-17 20:29:00,
2013-09-17 16:30:00,80.5,72.6,29.91,North,-999,0.0,0.0,77,0.13,,,-99.99,WeatherLink 6.0.2,2013-09-17 20:30:00,
2013-09-17 16:34:00,80.5,73.0,29.91,North,32767,0.0,0.0,78,0.62,,,0.24,Wunderground v.1.13,2013-09-17 20:34:00,
2013-09-17 16:35:00,80.3,72.8,29.91,North,-999,0.0,0.0,78,0.22,,,-99.99,WeatherLink 6.0.2,2013-09-17 20:35:00,
2013-09-17 16:39:00,79.9,72.4,29.91,North,32767,0.0,0.0,78,0.76,,,0.30,Wunderground v.1.13,2013-09-17 20:39:00,
2013-09-17 16:40:00,79.8,72.3,29.91,North,-999,0.0,0.0,78,0.28,,,-99.99,WeatherLink 6.0.2,2013-09-17 20:40:00,
2013-09-17 16:44:00,79.2,72.1,29.91,North,32767,0.0,0.0,79,0.28,,,0.33,Wunderground v.1.13,2013-09-17 20:44:00,
2013-09-17 16:45:00,79.0,71.9,29.91,North,-999,0.0,0.0,79,0.30,,,-99.99,WeatherLink 6.0.2,2013-09-17 20:45:00,
2013-09-17 16:49:00,78.6,71.9,29.91,North,32767,0.0,0.0,80,0.16,,,0.34,Wunderground v.1.13,2013-09-17 20:49:00,
2013-09-17 16:50:00,78.6,71.9,29.91,North,-999,0.0,0.0,80,0.32,,,-99.99,WeatherLink 6.0.2,2013-09-17 20:50:00,
2013-09-17 16:54:00,78.3,71.6,29.91,North,32767,0.0,0.0,80,0.32,,,0.39,Wunderground v.1.13,2013-09-17 20:54:00,
2013-09-17 16:55:00,78.3,71.6,29.91,North,-999,0.0,0.0,80,0.36,,,-99.99,WeatherLink 6.0.2,2013-09-17 20:55:00,
2013-09-17 16:59:00,78.1,71.8,29.91,North,32767,0.0,0.0,81,0.17,,,0.40,Wunderground v.1.13,2013-09-17 20:59:00,
2013-09-17 17:00:00,78.1,71.8,29.91,North,-999,0.0,0.0,81,0.37,,,-99.99,WeatherLink 6.0.2,2013-09-17 21:00:00,
2013-09-17 17:04:00,77.9,71.6,29.91,North,32767,0.0,0.0,81,0.09,,,0.40,Wunderground v.1.13,2013-09-17 21:04:00,
2013-09-17 17:05:00,77.7,71.4,29.91,North,-999,0.0,0.0,81,0.36,,,-99.99,WeatherLink 6.0.2,2013-09-17 21:05:00,
2013-09-17 17:09:00,77.7,71.8,29.91,North,32767,0.0,0.0,82,0.05,,,0.40,Wunderground v.1.13,2013-09-17 21:09:00,
2013-09-17 17:10:00,77.7,71.8,29.91,North,-999,0.0,0.0,82,0.36,,,-99.99,WeatherLink 6.0.2,2013-09-17 21:10:00,
2013-09-17 17:14:00,77.6,71.7,29.91,North,32767,0.0,0.0,82,0.04,,,0.40,Wunderground v.1.13,2013-09-17 21:14:00,
2013-09-17 17:19:00,77.6,72.0,29.91,North,32767,0.0,0.0,83,0.00,,,0.40,Wunderground v.1.13,2013-09-17 21:19:00,
2013-09-17 17:24:00,77.4,71.8,29.91,North,32767,0.0,0.0,83,0.00,,,0.40,Wunderground v.1.13,2013-09-17 21:24:00,
2013-09-17 17:25:00,77.4,71.8,29.91,North,-999,0.0,0.0,83,0.26,,,-99.99,WeatherLink 6.0.2,2013-09-17 21:25:00,
2013-09-17 17:29:00,77.4,72.2,29.91,North,32767,0.0,0.0,84,0.00,,,0.40,Wunderground v.1.13,2013-09-17 21:29:00,
2013-09-17 17:30:00,77.4,72.2,29.91,North,-999,0.0,0.0,84,0.24,,,-99.99,WeatherLink 6.0.2,2013-09-17 21:30:00,
2013-09-17 17:34:00,77.6,72.4,29.91,North,32767,0.0,0.0,84,0.00,,,0.40,Wunderground v.1.13,2013-09-17 21:34:00,
2013-09-17 17:35:00,77.6,72.4,29.91,North,-999,0.0,0.0,84,0.15,,,-99.99,WeatherLink 6.0.2,2013-09-17 21:35:00,
2013-09-17 17:40:00,77.6,72.7,29.91,North,32767,0.0,0.0,85,0.00,,,0.40,Wunderground v.1.13,2013-09-17 21:40:00,
2013-09-17 17:45:00,77.7,72.8,29.91,North,32767,0.0,0.0,85,0.00,,,0.40,Wunderground v.1.13,2013-09-17 21:45:00,
2013-09-17 17:50:00,77.6,72.7,29.91,North,32767,0.0,0.0,85,0.00,,,0.40,Wunderground v.1.13,2013-09-17 21:50:00,
2013-09-17 17:55:00,77.2,72.0,29.91,North,32767,0.0,0.0,84,0.00,,,0.40,Wunderground v.1.13,2013-09-17 21:55:00,
2013-09-17 18:00:00,76.8,71.6,29.91,North,32767,0.0,0.0,84,0.00,,,0.40,Wunderground v.1.13,2013-09-17 22:00:00,
2013-09-17 18:05:00,76.5,71.3,29.91,North,32767,0.0,0.0,84,0.00,,,0.40,Wunderground v.1.13,2013-09-17 22:05:00,
2013-09-17 18:10:00,76.7,71.5,29.91,North,32767,0.0,0.0,84,0.00,,,0.40,Wunderground v.1.13,2013-09-17 22:10:00,
2013-09-17 18:15:00,77.2,72.0,29.91,North,32767,0.0,0.0,84,0.00,,,0.40,Wunderground v.1.13,2013-09-17 22:15:00,
2013-09-17 18:20:00,78.3,72.7,29.91,North,32767,0.0,0.0,83,0.00,,,0.40,Wunderground v.1.13,2013-09-17 22:20:00,
2013-09-17 18:25:00,79.2,73.2,29.91,North,32767,0.0,0.0,82,0.00,,,0.40,Wunderground v.1.13,2013-09-17 22:25:00,
2013-09-17 18:30:00,79.2,72.5,29.91,North,32767,0.0,0.0,80,0.00,,,0.40,Wunderground v.1.13,2013-09-17 22:30:00,
2013-09-17 18:35:00,79.6,72.9,29.91,North,32767,0.0,0.0,80,0.00,,,0.40,Wunderground v.1.13,2013-09-17 22:35:00,
2013-09-17 18:40:00,79.8,73.1,29.91,North,32767,0.0,0.0,80,0.00,,,0.40,Wunderground v.1.13,2013-09-17 22:40:00,
2013-09-17 18:45:00,79.8,73.1,29.91,North,32767,0.0,0.0,80,0.00,,,0.40,Wunderground v.1.13,2013-09-17 22:45:00,
2013-09-17 18:50:00,79.8,73.1,29.91,North,32767,0.0,0.0,80,0.00,,,0.40,Wunderground v.1.13,2013-09-17 22:50:00,
2013-09-17 18:55:00,79.8,73.1,29.91,North,32767,0.0,0.0,80,0.00,,,0.40,Wunderground v.1.13,2013-09-17 22:55:00,
2013-09-17 19:00:00,79.6,72.9,29.92,North,32767,0.0,0.0,80,0.00,,,0.40,Wunderground v.1.13,2013-09-17 23:00:00,
2013-09-17 19:05:00,79.6,72.9,29.92,North,32767,0.0,0.0,80,0.00,,,0.40,Wunderground v.1.13,2013-09-17 23:05:00,
2013-09-17 19:10:00,79.4,72.7,29.92,North,32767,0.0,0.0,80,0.00,,,0.40,Wunderground v.1.13,2013-09-17 23:10:00,
2013-09-17 19:15:00,79.2,72.5,29.93,North,32767,0.0,0.0,80,0.00,,,0.40,Wunderground v.1.13,2013-09-17 23:15:00,
2013-09-17 19:20:00,78.8,72.1,29.93,North,32767,0.0,0.0,80,0.00,,,0.40,Wunderground v.1.13,2013-09-17 23:20:00,
2013-09-17 19:25:00,78.6,71.9,29.93,North,32767,0.0,0.0,80,0.00,,,0.40,Wunderground v.1.13,2013-09-17 23:25:00,
2013-09-17 19:30:00,78.5,71.8,29.93,North,32767,0.0,0.0,80,0.00,,,0.40,Wunderground v.1.13,2013-09-17 23:30:00,
2013-09-17 19:35:00,78.3,71.6,29.93,North,32767,0.0,0.0,80,0.00,,,0.40,Wunderground v.1.13,2013-09-17 23:35:00,
2013-09-17 19:40:00,78.1,71.4,29.93,North,32767,0.0,0.0,80,0.00,,,0.40,Wunderground v.1.13,2013-09-17 23:40:00,
2013-09-17 19:45:00,78.1,71.8,29.93,North,32767,0.0,0.0,81,0.00,,,0.40,Wunderground v.1.13,2013-09-17 23:45:00,
2013-09-17 19:50:00,77.9,71.6,29.93,North,32767,0.0,0.0,81,0.00,,,0.40,Wunderground v.1.13,2013-09-17 23:50:00,
2013-09-17 19:55:00,77.6,71.7,29.93,North,32767,0.0,0.0,82,0.00,,,0.40,Wunderground v.1.13,2013-09-17 23:55:00,
2013-09-17 20:01:00,77.4,71.5,29.93,North,32767,0.0,0.0,82,0.00,,,0.40,Wunderground v.1.13,2013-09-18 00:01:00,
2013-09-17 20:06:00,77.4,71.8,29.93,North,32767,0.0,0.0,83,0.00,,,0.40,Wunderground v.1.13,2013-09-18 00:06:00,
2013-09-17 20:11:00,77.2,71.6,29.93,North,32767,0.0,0.0,83,0.00,,,0.40,Wunderground v.1.13,2013-09-18 00:11:00,
2013-09-17 20:16:00,77.0,71.8,29.92,North,32767,0.0,0.0,84,0.00,,,0.40,Wunderground v.1.13,2013-09-18 00:16:00,
2013-09-17 20:21:00,76.8,71.6,29.92,North,32767,0.0,0.0,84,0.00,,,0.40,Wunderground v.1.13,2013-09-18 00:21:00,
2013-09-17 20:26:00,76.7,71.5,29.92,North,32767,0.0,0.0,84,0.00,,,0.40,Wunderground v.1.13,2013-09-18 00:26:00,
2013-09-17 20:31:00,76.5,71.3,29.91,North,32767,0.0,0.0,84,0.00,,,0.40,Wunderground v.1.13,2013-09-18 00:31:00,
2013-09-17 20:36:00,76.5,71.3,29.91,North,32767,0.0,0.0,84,0.00,,,0.40,Wunderground v.1.13,2013-09-18 00:36:00,
2013-09-17 20:41:00,76.3,71.1,29.91,North,32767,0.0,0.0,84,0.00,,,0.40,Wunderground v.1.13,2013-09-18 00:41:00,
2013-09-17 20:46:00,76.1,70.9,29.91,North,32767,0.0,0.0,84,0.00,,,0.40,Wunderground v.1.13,2013-09-18 00:46:00,
2013-09-17 20:51:00,76.1,70.9,29.91,North,32767,0.0,0.0,84,0.00,,,0.40,Wunderground v.1.13,2013-09-18 00:51:00,
2013-09-17 20:56:00,76.0,71.2,29.91,North,32767,0.0,0.0,85,0.00,,,0.40,Wunderground v.1.13,2013-09-18 00:56:00,
2013-09-17 21:01:00,76.0,71.2,29.91,North,32767,0.0,0.0,85,0.00,,,0.40,Wunderground v.1.13,2013-09-18 01:01:00,
2013-09-17 21:06:00,75.8,71.0,29.91,North,32767,0.0,0.0,85,0.00,,,0.40,Wunderground v.1.13,2013-09-18 01:06:00,
2013-09-17 21:11:00,75.8,71.0,29.91,North,32767,0.0,0.0,85,0.00,,,0.40,Wunderground v.1.13,2013-09-18 01:11:00,
2013-09-17 21:16:00,75.8,71.0,29.92,North,32767,0.0,0.0,85,0.00,,,0.40,Wunderground v.1.13,2013-09-18 01:16:00,
2013-09-17 21:21:00,75.8,71.0,29.92,North,32767,0.0,0.0,85,0.00,,,0.40,Wunderground v.1.13,2013-09-18 01:21:00,
2013-09-17 21:26:00,75.6,70.8,29.92,North,32767,0.0,0.0,85,0.00,,,0.40,Wunderground v.1.13,2013-09-18 01:26:00,
2013-09-17 21:31:00,75.6,71.1,29.93,North,32767,0.0,0.0,86,0.00,,,0.40,Wunderground v.1.13,2013-09-18 01:31:00,
2013-09-17 21:36:00,75.4,70.9,29.93,North,32767,0.0,0.0,86,0.00,,,0.40,Wunderground v.1.13,2013-09-18 01:36:00,
2013-09-17 21:41:00,75.4,70.9,29.93,North,32767,0.0,0.0,86,0.00,,,0.40,Wunderground v.1.13,2013-09-18 01:41:00,
2013-09-17 21:46:00,75.3,70.8,29.93,North,32767,0.0,0.0,86,0.00,,,0.40,Wunderground v.1.13,2013-09-18 01:46:00,
2013-09-17 21:50:00,75.3,70.8,29.93,North,-999,0.0,0.0,86,0.00,,,-99.99,WeatherLink 6.0.2,2013-09-18 01:50:00,
2013-09-17 21:51:00,75.3,70.8,29.93,North,32767,0.0,0.0,86,0.00,,,0.40,Wunderground v.1.13,2013-09-18 01:51:00,
2013-09-17 21:55:00,75.3,70.8,29.93,North,-999,0.0,0.0,86,0.00,,,-99.99,WeatherLink 6.0.2,2013-09-18 01:55:00,
2013-09-17 21:56:00,75.3,70.8,29.93,North,32767,0.0,0.0,86,0.00,,,0.40,Wunderground v.1.13,2013-09-18 01:56:00,
2013-09-17 22:00:00,75.3,70.8,29.94,North,-999,0.0,0.0,86,0.00,,,-99.99,WeatherLink 6.0.2,2013-09-18 02:00:00,
2013-09-17 22:02:00,75.3,70.8,29.94,North,32767,0.0,0.0,86,0.00,,,0.40,Wunderground v.1.13,2013-09-18 02:02:00,
2013-09-17 22:05:00,75.1,70.6,29.94,North,-999,0.0,0.0,86,0.00,,,-99.99,WeatherLink 6.0.2,2013-09-18 02:05:00,
2013-09-17 22:07:00,75.1,70.6,29.94,North,32767,0.0,0.0,86,0.00,,,0.40,Wunderground v.1.13,2013-09-18 02:07:00,
2013-09-17 22:12:00,75.1,71.0,29.94,North,32767,0.0,0.0,87,0.00,,,0.40,Wunderground v.1.13,2013-09-18 02:12:00,
2013-09-17 22:17:00,75.1,71.0,29.94,North,32767,0.0,0.0,87,0.00,,,0.40,Wunderground v.1.13,2013-09-18 02:17:00,
2013-09-17 22:22:00,74.9,70.8,29.94,North,32767,0.0,0.0,87,0.00,,,0.40,Wunderground v.1.13,2013-09-18 02:22:00,
2013-09-17 22:27:00,74.9,70.8,29.94,North,32767,0.0,0.0,87,0.00,,,0.40,Wunderground v.1.13,2013-09-18 02:27:00,
2013-09-17 22:30:00,74.7,70.6,29.94,North,-999,0.0,0.0,87,0.00,,,-99.99,WeatherLink 6.0.2,2013-09-18 02:30:00,
2013-09-17 22:32:00,74.7,70.6,29.94,North,32767,0.0,0.0,87,0.00,,,0.40,Wunderground v.1.13,2013-09-18 02:32:00,
2013-09-17 22:35:00,74.7,70.6,29.94,North,-999,0.0,0.0,87,0.00,,,-99.99,WeatherLink 6.0.2,2013-09-18 02:35:00,
2013-09-17 22:37:00,74.7,70.6,29.94,North,32767,0.0,0.0,87,0.00,,,0.40,Wunderground v.1.13,2013-09-18 02:37:00,
2013-09-17 22:40:00,74.6,70.5,29.94,North,-999,0.0,0.0,87,0.00,,,-99.99,WeatherLink 6.0.2,2013-09-18 02:40:00,
2013-09-17 22:42:00,74.6,70.5,29.94,North,32767,0.0,0.0,87,0.00,,,0.40,Wunderground v.1.13,2013-09-18 02:42:00,
2013-09-17 22:47:00,74.4,70.3,29.94,North,32767,0.0,0.0,87,0.00,,,0.40,Wunderground v.1.13,2013-09-18 02:47:00,
2013-09-17 22:52:00,74.4,70.3,29.94,North,32767,0.0,0.0,87,0.00,,,0.40,Wunderground v.1.13,2013-09-18 02:52:00,
2013-09-17 22:57:00,74.2,70.1,29.94,North,32767,0.0,0.0,87,0.00,,,0.40,Wunderground v.1.13,2013-09-18 02:57:00,
2013-09-17 23:00:00,74.2,70.1,29.94,North,-999,0.0,0.0,87,0.00,,,-99.99,WeatherLink 6.0.2,2013-09-18 03:00:00,
2013-09-17 23:02:00,74.0,69.9,29.94,North,32767,0.0,0.0,87,0.00,,,0.40,Wunderground v.1.13,2013-09-18 03:02:00,
2013-09-17 23:05:00,74.0,69.9,29.94,North,-999,0.0,0.0,87,0.00,,,-99.99,WeatherLink 6.0.2,2013-09-18 03:05:00,
2013-09-17 23:07:00,74.0,69.9,29.94,North,32767,0.0,0.0,87,0.00,,,0.40,Wunderground v.1.13,2013-09-18 03:07:00,
2013-09-17 23:12:00,73.9,69.8,29.94,North,32767,0.0,0.0,87,0.00,,,0.40,Wunderground v.1.13,2013-09-18 03:12:00,
2013-09-17 23:17:00,73.9,69.8,29.94,North,32767,0.0,0.0,87,0.00,,,0.40,Wunderground v.1.13,2013-09-18 03:17:00,
2013-09-17 23:22:00,73.7,69.6,29.94,North,32767,0.0,0.0,87,0.00,,,0.40,Wunderground v.1.13,2013-09-18 03:22:00,
2013-09-17 23:27:00,73.7,69.6,29.94,North,32767,0.0,0.0,87,0.00,,,0.40,Wunderground v.1.13,2013-09-18 03:27:00,
2013-09-17 23:32:00,73.5,69.4,29.95,North,32767,0.0,0.0,87,0.00,,,0.40,Wunderground v.1.13,2013-09-18 03:32:00,
2013-09-17 23:37:00,73.5,69.4,29.95,North,32767,0.0,0.0,87,0.00,,,0.40,Wunderground v.1.13,2013-09-18 03:37:00,
2013-09-17 23:42:00,73.3,69.2,29.95,North,32767,0.0,0.0,87,0.00,,,0.40,Wunderground v.1.13,2013-09-18 03:42:00,
2013-09-17 23:47:00,73.2,69.1,29.95,North,32767,0.0,0.0,87,0.00,,,0.40,Wunderground v.1.13,2013-09-18 03:47:00,
2013-09-17 23:53:00,73.2,69.1,29.95,North,32767,0.0,0.0,87,0.00,,,0.40,Wunderground v.1.13,2013-09-18 03:53:00,
2013-09-17 23:58:00,73.0,68.9,29.95,North,32767,0.0,0.0,87,0.00,,,0.40,Wunderground v.1.13,2013-09-18 03:58:00,